Pittsfield, IL

9:13 AM CDT on September 20, 2017 (GMT -0500)
Pittsfield Penstone Municipal

Weather History for KPPQ - June, 2013

Change the Weather History Date:

Sunday, June 23, 2013

  Actual Average (KUIN) Record (KUIN)
Temperature  
Mean Temperature 77 °F -  
Max Temperature 87 °F 82 °F 100 °F (1934)
Min Temperature 68 °F 63 °F 50 °F (1905)
Cooling Degree Days 12    
Growing Degree Days 27 (Base 50)    
Moisture  
Dew Point 67 °F    
Average Humidity 78    
Maximum Humidity 91    
Minimum Humidity 62    
Precipitation  
Precipitation 0.19 in - - ()
Sea Level Pressure  
Sea Level Pressure 30.01 in    
Wind  
Wind Speed 8 mph (SSE)    
Max Wind Speed 15 mph    
Max Gust Speed 25 mph    
Visibility 10 miles    
Events Rain , Thunderstorm    
Averages and records for this station are not official NWS values.
T = Trace of Precipitation, MM = Missing Value Source: NWS Daily Summary

Daily Weather History Graph

Daily Weather History Graph

Search for Another Location

Airport or City:

Trip Planner

Search our weather history database for the weather conditions in past years. The results will help you decide how hot, cold, wet, or windy it might be!

Date:

Astronomy

Jun. 23, 2013 Rise Set
Actual Time 5:36 AM CDT 8:34 PM CDT
Civil Twilight 5:03 AM CDT 9:07 PM CDT
Nautical Twilight 4:22 AM CDT 9:48 PM CDT
Astronomical Twilight 3:34 AM CDT 10:36 PM CDT
Moon 8:47 PM CDT (6/23) 5:53 AM CDT (6/23)
Length of Visible Light 16h 03m
Length of Day
14h 58m
Full, 100% of the Moon is Illuminated
Jun 23
Full
Jun 29
Last Quarter
Jul 8
New
Jul 15
First Quarter
Jul 22
Full

Hourly Weather History & Observations

Time (CDT) Temp. Heat Index Dew Point Humidity Pressure Visibility Wind Dir Wind Speed Gust Speed Precip Events Conditions
12:15 AM 72.9 °F - 62.1 °F 69% 30.03 in 10.0 mi SSW 6.9 mph - N/A   Clear
12:35 AM 72.9 °F - 62.1 °F 69% 30.01 in 10.0 mi SSW 8.1 mph - N/A   Clear
12:55 AM 73.6 °F - 61.7 °F 66% 30.00 in 10.0 mi WSW 10.4 mph - N/A   Clear
1:15 AM 73.9 °F - 61.7 °F 65% 29.98 in 10.0 mi SW 5.8 mph - N/A   Clear
1:35 AM 74.3 °F - 61.5 °F 64% 29.98 in 10.0 mi SW 6.9 mph - N/A   Clear
1:55 AM 74.1 °F - 61.9 °F 65% 29.98 in 10.0 mi SSW 4.6 mph - N/A   Clear
2:15 AM 73.6 °F - 62.2 °F 68% 29.99 in 10.0 mi SE 4.6 mph - N/A   Clear
2:35 AM 71.8 °F - 63.1 °F 74% 29.99 in 10.0 mi SE 6.9 mph - N/A   Clear
2:55 AM 71.4 °F - 63.0 °F 75% 29.99 in 10.0 mi SE 6.9 mph - N/A   Clear
3:15 AM 70.7 °F - 62.8 °F 76% 29.99 in 10.0 mi SE 5.8 mph - N/A   Clear
3:35 AM 70.2 °F - 63.0 °F 78% 29.99 in 10.0 mi SE 5.8 mph - N/A   Clear
3:55 AM 69.8 °F - 63.0 °F 79% 30.00 in 10.0 mi SE 6.9 mph - N/A   Clear
4:15 AM 69.3 °F - 63.3 °F 81% 30.02 in 10.0 mi SE 5.8 mph - N/A   Clear
4:35 AM 68.9 °F - 63.5 °F 83% 30.03 in 10.0 mi SE 5.8 mph - N/A   Clear
4:55 AM 68.9 °F - 63.5 °F 83% 30.03 in 10.0 mi SE 6.9 mph - N/A   Clear
5:15 AM 68.9 °F - 63.7 °F 83% 30.03 in 10.0 mi SE 5.8 mph - N/A   Clear
5:35 AM 68.9 °F - 63.9 °F 84% 30.03 in 10.0 mi SE 6.9 mph - N/A   Clear
5:55 AM 68.9 °F - 64.0 °F 84% 30.03 in 10.0 mi SSE 4.6 mph - N/A   Clear
6:15 AM 69.3 °F - 64.2 °F 84% 30.04 in 10.0 mi SSE 6.9 mph - N/A   Clear
6:35 AM 69.6 °F - 64.4 °F 83% 30.04 in 10.0 mi SSE 5.8 mph - N/A   Clear
6:55 AM 70.2 °F - 64.4 °F 82% 30.03 in 10.0 mi SSE 6.9 mph - N/A   Clear
7:15 AM 71.4 °F - 64.8 °F 79% 30.03 in 10.0 mi SSE 8.1 mph - N/A Thunderstorm Clear
7:35 AM 72.5 °F - 65.5 °F 79% 30.03 in 10.0 mi SSE 8.1 mph - N/A   Clear
7:55 AM 73.4 °F - 65.5 °F 76% 30.03 in 10.0 mi SSE 9.2 mph - N/A   Clear
8:15 AM 74.3 °F - 66.0 °F 75% 30.03 in 10.0 mi SSE 8.1 mph - N/A   Clear
8:35 AM 75.7 °F - 66.9 °F 74% 30.03 in 10.0 mi SSE 11.5 mph - N/A   Clear
8:55 AM 76.8 °F - 67.3 °F 72% 30.03 in 10.0 mi South 9.2 mph - N/A   Clear
9:15 AM 77.4 °F - 67.3 °F 71% 30.04 in 10.0 mi South 11.5 mph - N/A   Clear
9:35 AM 78.3 °F - 68.0 °F 71% 30.03 in 10.0 mi South 12.7 mph - N/A   Clear
9:55 AM 78.4 °F - 68.0 °F 70% 30.04 in 10.0 mi South 12.7 mph 18.4 mph N/A   Clear
10:15 AM 79.2 °F - 68.4 °F 69% 30.03 in 10.0 mi South 11.5 mph 17.3 mph N/A Thunderstorm Clear
10:35 AM 79.5 °F - 68.5 °F 69% 30.04 in 10.0 mi South 10.4 mph - N/A   Clear
10:55 AM 80.6 °F 83.6 °F 69.1 °F 68% 30.04 in 10.0 mi South 9.2 mph - N/A   Clear
11:15 AM 81.0 °F 84.2 °F 69.4 °F 68% 30.04 in 10.0 mi SSE 12.7 mph - N/A   Clear
11:35 AM 81.5 °F 85.1 °F 70.0 °F 68% 30.05 in 10.0 mi South 10.4 mph 16.1 mph N/A   Clear
11:55 AM 82.4 °F 86.3 °F 70.2 °F 66% 30.05 in 10.0 mi SSW 9.2 mph - N/A   Clear
12:15 PM 82.8 °F 86.7 °F 69.8 °F 65% 30.04 in 10.0 mi South 9.2 mph - N/A   Clear
12:35 PM 83.7 °F 88.3 °F 70.7 °F 65% 30.04 in 10.0 mi South 8.1 mph - N/A   Clear
12:55 PM 84.6 °F 89.7 °F 71.1 °F 64% 30.03 in 10.0 mi SSW 5.8 mph - N/A   Clear
1:15 PM 85.3 °F 91.1 °F 71.8 °F 64% 30.02 in 10.0 mi SSE 5.8 mph - N/A   Clear
1:35 PM 85.8 °F 92.2 °F 72.3 °F 64% 30.01 in 10.0 mi SSE 6.9 mph - N/A   Clear
1:55 PM 86.2 °F 92.6 °F 72.1 °F 63% 30.00 in 10.0 mi South 10.4 mph - N/A   Clear
2:15 PM 86.5 °F 93.3 °F 72.5 °F 63% 29.98 in 10.0 mi South 11.5 mph - N/A   Clear
2:35 PM 86.9 °F 93.7 °F 72.7 °F 62% 29.99 in 10.0 mi SSE 10.4 mph 17.3 mph N/A   Clear
2:55 PM 86.5 °F 92.9 °F 72.3 °F 62% 29.98 in 10.0 mi South 12.7 mph - N/A   Clear
3:15 PM 84.7 °F 90.4 °F 71.8 °F 65% 29.99 in 10.0 mi South 4.6 mph - N/A Thunderstorm Thunderstorm
3:35 PM 76.1 °F - 65.5 °F 70% 30.05 in 10.0 mi NW 15.0 mph 25.3 mph N/A Thunderstorm Mostly Cloudy
3:55 PM 71.8 °F - 67.6 °F 87% 30.05 in 3.0 mi NW 10.4 mph - 0.07 in Rain , Thunderstorm Heavy Thunderstorms and Rain
4:15 PM 70.7 °F - 67.3 °F 89% 30.02 in 5.0 mi NW 4.6 mph - 0.05 in Rain , Thunderstorm Thunderstorms and Rain
4:35 PM 70.9 °F - 67.6 °F 89% 30.02 in 10.0 mi SSE 4.6 mph - 0.05 in Rain , Thunderstorm Light Thunderstorms and Rain
4:55 PM 71.1 °F - 68.2 °F 91% 30.00 in 7.0 mi ESE 3.5 mph - 0.07 in Rain , Thunderstorm Thunderstorms and Rain
5:15 PM 70.9 °F - 68.2 °F 91% 29.98 in 7.0 mi ESE 6.9 mph - 0.02 in Rain , Thunderstorm Thunderstorms and Rain
5:35 PM 71.2 °F - 68.4 °F 91% 29.95 in 7.0 mi SE 8.1 mph - 0.04 in Rain , Thunderstorm Light Thunderstorms and Rain
5:55 PM 71.6 °F - 68.2 °F 89% 29.93 in 10.0 mi SE 11.5 mph - 0.05 in Rain Light Rain
6:15 PM 71.1 °F - 68.0 °F 90% 29.95 in 10.0 mi SE 12.7 mph 20.7 mph N/A Rain Light Rain
6:35 PM 70.9 °F - 67.5 °F 89% 29.95 in 10.0 mi ESE 12.7 mph - N/A Thunderstorm Thunderstorm
6:55 PM 70.7 °F - 66.9 °F 88% 29.95 in 10.0 mi SE 11.5 mph - N/A   Clear
7:15 PM 70.5 °F - 67.1 °F 89% 29.96 in 10.0 mi SE 9.2 mph - N/A   Clear
7:35 PM 70.3 °F - 66.9 °F 89% 29.96 in 10.0 mi SE 8.1 mph - N/A   Clear
7:55 PM 70.2 °F - 66.7 °F 89% 29.98 in 10.0 mi ESE 4.6 mph - N/A   Clear
8:15 PM 70.0 °F - 66.6 °F 89% 30.00 in 10.0 mi SSE 6.9 mph - N/A   Clear
8:35 PM 70.0 °F - 66.4 °F 88% 30.02 in 10.0 mi SSE 3.5 mph - N/A   Clear
8:55 PM 69.8 °F - 66.0 °F 88% 30.03 in 10.0 mi SW 5.8 mph - N/A   Clear
9:15 PM 69.8 °F - 65.7 °F 87% 30.02 in 10.0 mi South 4.6 mph - N/A   Clear
9:35 PM 69.8 °F - 65.5 °F 86% 30.04 in 10.0 mi SW 6.9 mph - N/A   Clear
9:55 PM 69.8 °F - 65.5 °F 86% 30.03 in 10.0 mi SSE 6.9 mph - N/A   Clear
10:15 PM 69.6 °F - 65.7 °F 87% 30.03 in 10.0 mi South 5.8 mph - N/A   Clear
10:35 PM 69.4 °F - 65.8 °F 88% 30.03 in 10.0 mi SSE 6.9 mph - N/A   Clear
10:55 PM 69.4 °F - 66.2 °F 89% 30.03 in 10.0 mi South 5.8 mph - N/A   Clear
11:15 PM 69.4 °F - 66.0 °F 89% 30.03 in 10.0 mi South 5.8 mph - N/A   Clear
11:35 PM 69.3 °F - 65.8 °F 89% 30.03 in 10.0 mi SSE 5.8 mph - N/A   Clear
11:55 PM 69.3 °F - 66.2 °F 90% 30.03 in 10.0 mi SSE 6.9 mph - N/A   Clear